FNG220 EFHK-EFHK

Flight info

Callsign FNG220
Flight time 0h 51m
Altitude 1500
Route LILJA KAUNISSAARI SANTAHAMINA NOKKA DCT
Aircraft A119/L-SDFZ/C

Departure

Time 2026-04-25 10:04
Airport Helsinki Vantaa Airport (EFHK)

Arrival

Time 2026-04-25 10:55
Airport Helsinki Vantaa Airport (EFHK)
Time Latitude Longitude Altitude Speed Heading
2026-04-25 10:00 60.31319 24.98946 158 ft 0 kts 157°
2026-04-25 10:02 60.31318 24.98921 170 ft 6 kts 158°
2026-04-25 10:02 60.31291 24.98904 193 ft 16 kts 210°
2026-04-25 10:02 60.31409 24.98660 332 ft 68 kts 343°
2026-04-25 10:02 60.31931 24.98989 567 ft 108 kts 57°
2026-04-25 10:03 60.31957 25.00606 626 ft 128 kts 112°
2026-04-25 10:03 60.31454 25.02118 635 ft 125 kts 109°
2026-04-25 10:03 60.31440 25.03631 594 ft 101 kts 71°
2026-04-25 10:03 60.31544 25.05099 728 ft 106 kts 82°
2026-04-25 10:04 60.31619 25.06569 801 ft 107 kts 85°
2026-04-25 10:04 60.31684 25.08067 1020 ft 108 kts 84°
2026-04-25 10:04 60.31756 25.09556 1272 ft 108 kts 84°
2026-04-25 10:04 60.31834 25.11066 1541 ft 108 kts 83°
2026-04-25 10:05 60.31926 25.12549 1614 ft 106 kts 79°
2026-04-25 10:05 60.32025 25.14002 1442 ft 103 kts 77°
2026-04-25 10:05 60.32077 25.15453 1182 ft 104 kts 84°
2026-04-25 10:05 60.32082 25.16913 1036 ft 105 kts 88°
2026-04-25 10:06 60.32047 25.18398 1041 ft 106 kts 96°
2026-04-25 10:06 60.31779 25.19772 1016 ft 106 kts 120°
2026-04-25 10:06 60.31286 25.20833 1018 ft 105 kts 139°
2026-04-25 10:06 60.30673 25.21632 1017 ft 105 kts 150°
2026-04-25 10:07 60.30022 25.22257 948 ft 102 kts 153°
2026-04-25 10:07 60.29353 25.22798 840 ft 110 kts 161°
2026-04-25 10:07 60.28563 25.23324 870 ft 123 kts 160°
2026-04-25 10:07 60.27766 25.23867 855 ft 120 kts 160°
2026-04-25 10:08 60.26968 25.24392 859 ft 121 kts 161°
2026-04-25 10:08 60.26165 25.24909 860 ft 121 kts 161°
2026-04-25 10:08 60.25361 25.25429 856 ft 121 kts 161°
2026-04-25 10:08 60.24562 25.25945 858 ft 121 kts 161°
2026-04-25 10:09 60.23759 25.26465 859 ft 121 kts 161°
2026-04-25 10:09 60.22968 25.26976 859 ft 121 kts 161°
2026-04-25 10:09 60.22166 25.27494 860 ft 121 kts 161°
2026-04-25 10:09 60.21362 25.28013 855 ft 121 kts 161°
2026-04-25 10:10 60.20558 25.28531 871 ft 118 kts 160°
2026-04-25 10:10 60.19838 25.29009 847 ft 107 kts 161°
2026-04-25 10:10 60.19089 25.29276 967 ft 111 kts 175°
2026-04-25 10:10 60.18327 25.29381 1226 ft 111 kts 178°
2026-04-25 10:11 60.17554 25.29451 1477 ft 111 kts 178°
2026-04-25 10:11 60.16798 25.29537 1520 ft 108 kts 175°
2026-04-25 10:11 60.16042 25.29639 1517 ft 109 kts 175°
2026-04-25 10:11 60.15287 25.29722 1517 ft 109 kts 176°
2026-04-25 10:12 60.14531 25.29802 1517 ft 109 kts 176°
2026-04-25 10:12 60.13776 25.29881 1517 ft 109 kts 176°
2026-04-25 10:12 60.12265 25.30026 1517 ft 109 kts 176°
2026-04-25 10:13 60.11511 25.30095 1517 ft 109 kts 176°
2026-04-25 10:13 60.10711 25.30155 1510 ft 125 kts 179°
2026-04-25 10:13 60.09857 25.30224 1519 ft 121 kts 176°
2026-04-25 10:13 60.09010 25.30303 1517 ft 122 kts 176°
2026-04-25 10:14 60.08163 25.30380 1517 ft 122 kts 176°
2026-04-25 10:14 60.07314 25.30458 1517 ft 122 kts 176°
2026-04-25 10:14 60.06467 25.30535 1517 ft 122 kts 176°
2026-04-25 10:14 60.05617 25.30610 1517 ft 122 kts 176°
2026-04-25 10:15 60.04780 25.30686 1517 ft 122 kts 176°
2026-04-25 10:15 60.03930 25.30765 1517 ft 122 kts 176°
2026-04-25 10:15 60.03094 25.30846 1530 ft 113 kts 174°
2026-04-25 10:15 60.02584 25.30903 1508 ft 112 kts 177°
2026-04-25 10:16 60.01878 25.30971 1360 ft 111 kts 180°
2026-04-25 10:16 60.01234 25.31315 1165 ft 118 kts 155°
2026-04-25 10:16 60.00759 25.32284 1213 ft 126 kts 127°
2026-04-25 10:16 60.00531 25.33827 1353 ft 132 kts 94°
2026-04-25 10:17 60.00725 25.35423 1516 ft 107 kts 47°
2026-04-25 10:17 60.01224 25.36126 1516 ft 73 kts 352°
2026-04-25 10:17 60.01575 25.35830 1509 ft 47 kts 302°
2026-04-25 10:17 60.01841 25.35338 1505 ft 64 kts 311°
2026-04-25 10:18 60.02251 25.34800 1506 ft 72 kts 319°
2026-04-25 10:18 60.02720 25.34397 1504 ft 75 kts 328°
2026-04-25 10:18 60.03230 25.34110 1507 ft 77 kts 333°
2026-04-25 10:18 60.03750 25.33917 1508 ft 77 kts 337°
2026-04-25 10:19 60.04339 25.33769 1490 ft 99 kts 345°
2026-04-25 10:19 60.05033 25.33657 1509 ft 98 kts 344°
2026-04-25 10:19 60.05713 25.33574 1501 ft 98 kts 346°
2026-04-25 10:19 60.06395 25.33516 1504 ft 98 kts 347°
2026-04-25 10:20 60.07075 25.33466 1499 ft 98 kts 347°
2026-04-25 10:20 60.07792 25.33419 1489 ft 114 kts 351°
2026-04-25 10:20 60.08644 25.33387 1501 ft 127 kts 350°
2026-04-25 10:20 60.09477 25.33345 1497 ft 123 kts 349°
2026-04-25 10:21 60.10341 25.33293 1502 ft 125 kts 349°
2026-04-25 10:21 60.11196 25.33242 1500 ft 124 kts 348°
2026-04-25 10:21 60.12060 25.33188 1497 ft 122 kts 349°
2026-04-25 10:21 60.12902 25.33138 1496 ft 123 kts 350°
2026-04-25 10:22 60.13754 25.33090 1495 ft 123 kts 350°
2026-04-25 10:22 60.14332 25.33059 1493 ft 123 kts 350°
2026-04-25 10:22 60.15476 25.32998 1496 ft 125 kts 350°
2026-04-25 10:22 60.16339 25.32948 1496 ft 124 kts 349°
2026-04-25 10:23 60.17203 25.32896 1495 ft 124 kts 350°
2026-04-25 10:23 60.18042 25.32842 1509 ft 109 kts 347°
2026-04-25 10:23 60.18722 25.32794 1491 ft 89 kts 348°
2026-04-25 10:23 60.19298 25.32869 1493 ft 83 kts
2026-04-25 10:24 60.19711 25.33704 1494 ft 89 kts 54°
2026-04-25 10:24 60.19728 25.34934 1495 ft 87 kts 94°
2026-04-25 10:24 60.19560 25.36003 1486 ft 78 kts 122°
2026-04-25 10:24 60.19122 25.36452 1492 ft 68 kts 184°
2026-04-25 10:25 60.18703 25.36333 1489 ft 55 kts 200°
2026-04-25 10:25 60.18221 25.36170 1489 ft 85 kts 200°
2026-04-25 10:25 60.17530 25.36011 1478 ft 114 kts 193°
2026-04-25 10:25 60.16663 25.35913 1505 ft 128 kts 185°
2026-04-25 10:26 60.16067 25.35923 1497 ft 127 kts 183°
2026-04-25 10:26 60.15187 25.35968 1493 ft 128 kts 182°
2026-04-25 10:26 60.14302 25.36017 1487 ft 126 kts 182°
2026-04-25 10:26 60.13424 25.36047 1494 ft 126 kts 184°
2026-04-25 10:27 60.12544 25.36084 1487 ft 126 kts 184°
2026-04-25 10:27 60.11663 25.36120 1486 ft 127 kts 184°
2026-04-25 10:27 60.10773 25.36156 1485 ft 128 kts 184°
2026-04-25 10:27 60.09877 25.36193 1495 ft 129 kts 183°
2026-04-25 10:28 60.08983 25.36230 1491 ft 128 kts 183°
2026-04-25 10:28 60.08091 25.36266 1498 ft 128 kts 184°
2026-04-25 10:28 60.07208 25.36302 1489 ft 126 kts 184°
2026-04-25 10:28 60.06326 25.36338 1499 ft 127 kts 184°
2026-04-25 10:29 60.05443 25.36374 1500 ft 127 kts 184°
2026-04-25 10:29 60.04570 25.36411 1529 ft 118 kts 182°
2026-04-25 10:29 60.03833 25.36465 1497 ft 99 kts 183°
2026-04-25 10:29 60.03199 25.36512 1511 ft 84 kts 185°
2026-04-25 10:30 60.02664 25.36540 1508 ft 70 kts 188°
2026-04-25 10:30 60.02210 25.36554 1503 ft 64 kts 191°
2026-04-25 10:30 60.01760 25.36570 1504 ft 64 kts 190°
2026-04-25 10:30 60.01312 25.36589 1507 ft 65 kts 190°
2026-04-25 10:31 60.00905 25.37072 1512 ft 73 kts 126°
2026-04-25 10:31 60.00892 25.38040 1503 ft 78 kts 65°
2026-04-25 10:31 60.01055 25.39100 1503 ft 78 kts 60°
2026-04-25 10:31 60.01387 25.39699 1508 ft 55 kts 358°
2026-04-25 10:32 60.01853 25.39615 1497 ft 80 kts 343°
2026-04-25 10:32 60.02500 25.39490 1497 ft 106 kts 348°
2026-04-25 10:32 60.03294 25.39400 1511 ft 117 kts 348°
2026-04-25 10:32 60.04096 25.39324 1503 ft 115 kts 349°
2026-04-25 10:33 60.04906 25.39271 1501 ft 116 kts 349°
2026-04-25 10:33 60.05711 25.39219 1498 ft 115 kts 349°
2026-04-25 10:33 60.06502 25.39186 1494 ft 115 kts 350°
2026-04-25 10:33 60.07300 25.39150 1496 ft 115 kts 351°
2026-04-25 10:34 60.08100 25.39115 1490 ft 115 kts 351°
2026-04-25 10:34 60.08898 25.39079 1496 ft 115 kts 351°
2026-04-25 10:34 60.09697 25.39044 1481 ft 116 kts 351°
2026-04-25 10:34 60.10506 25.39008 1486 ft 117 kts 351°
2026-04-25 10:35 60.11318 25.38972 1478 ft 119 kts 352°
2026-04-25 10:35 60.12159 25.38933 1490 ft 120 kts 351°
2026-04-25 10:35 60.12999 25.38897 1484 ft 121 kts 351°
2026-04-25 10:35 60.13829 25.38860 1485 ft 119 kts 352°
2026-04-25 10:36 60.14655 25.38823 1478 ft 119 kts 352°
2026-04-25 10:36 60.15489 25.38786 1482 ft 120 kts 352°
2026-04-25 10:36 60.16325 25.38749 1477 ft 120 kts 351°
2026-04-25 10:36 60.17152 25.38712 1481 ft 120 kts 352°
2026-04-25 10:37 60.17978 25.38675 1507 ft 111 kts 349°
2026-04-25 10:37 60.18639 25.38644 1486 ft 76 kts 347°
2026-04-25 10:37 60.19065 25.38627 1474 ft 54 kts 347°
2026-04-25 10:37 60.19421 25.38624 1474 ft 54 kts 352°
2026-04-25 10:38 60.19732 25.39225 1482 ft 73 kts 52°
2026-04-25 10:38 60.19776 25.40249 1478 ft 73 kts 76°
2026-04-25 10:38 60.19795 25.41268 1476 ft 74 kts 76°
2026-04-25 10:38 60.19568 25.42259 1482 ft 83 kts 133°
2026-04-25 10:39 60.19053 25.42566 1482 ft 75 kts 192°
2026-04-25 10:39 60.18570 25.42376 1480 ft 70 kts 201°
2026-04-25 10:39 60.18084 25.42226 1478 ft 72 kts 197°
2026-04-25 10:39 60.17582 25.42132 1482 ft 73 kts 193°
2026-04-25 10:40 60.17068 25.42081 1482 ft 74 kts 189°
2026-04-25 10:40 60.16461 25.42034 1474 ft 101 kts 188°
2026-04-25 10:40 60.15664 25.42305 1475 ft 132 kts 163°
2026-04-25 10:40 60.14748 25.42783 1493 ft 134 kts 167°
2026-04-25 10:41 60.13856 25.43207 1487 ft 133 kts 168°
2026-04-25 10:41 60.12957 25.43642 1496 ft 133 kts 168°
2026-04-25 10:41 60.12058 25.44084 1489 ft 134 kts 168°
2026-04-25 10:41 60.11153 25.44529 1487 ft 134 kts 168°
2026-04-25 10:42 60.10248 25.44963 1502 ft 133 kts 168°
2026-04-25 10:42 60.09344 25.45387 1493 ft 134 kts 168°
2026-04-25 10:42 60.08428 25.45715 1490 ft 134 kts 181°
2026-04-25 10:42 60.07570 25.45194 1495 ft 126 kts 215°
2026-04-25 10:43 60.07036 25.43914 1495 ft 116 kts 250°
2026-04-25 10:43 60.06985 25.42387 1496 ft 109 kts 284°
2026-04-25 10:43 60.07415 25.41182 1494 ft 109 kts 319°
2026-04-25 10:43 60.08098 25.40577 1489 ft 106 kts 333°
2026-04-25 10:44 60.08782 25.40010 1491 ft 107 kts 333°
2026-04-25 10:44 60.09477 25.39450 1491 ft 107 kts 333°
2026-04-25 10:44 60.10168 25.38894 1488 ft 107 kts 333°
2026-04-25 10:44 60.10855 25.38339 1488 ft 106 kts 333°
2026-04-25 10:45 60.11531 25.37794 1486 ft 106 kts 333°
2026-04-25 10:45 60.12223 25.37235 1485 ft 106 kts 333°
2026-04-25 10:45 60.12899 25.36689 1476 ft 106 kts 334°
2026-04-25 10:45 60.13585 25.36134 1485 ft 107 kts 334°
2026-04-25 10:46 60.14272 25.35579 1482 ft 106 kts 334°
2026-04-25 10:46 60.14983 25.35009 1471 ft 117 kts 335°
2026-04-25 10:46 60.15725 25.34399 1478 ft 113 kts 334°
2026-04-25 10:46 60.16457 25.33808 1477 ft 113 kts 335°
2026-04-25 10:47 60.17187 25.33218 1477 ft 113 kts 334°
2026-04-25 10:47 60.17922 25.32624 1477 ft 114 kts 335°
2026-04-25 10:47 60.18655 25.32029 1472 ft 114 kts 335°
2026-04-25 10:47 60.19389 25.31434 1476 ft 114 kts 335°
2026-04-25 10:48 60.20116 25.30844 1472 ft 114 kts 335°
2026-04-25 10:48 60.20851 25.30248 1474 ft 114 kts 335°
2026-04-25 10:48 60.21587 25.29649 1468 ft 114 kts 335°
2026-04-25 10:48 60.22318 25.29055 1468 ft 113 kts 335°
2026-04-25 10:49 60.23050 25.28460 1471 ft 113 kts 335°
2026-04-25 10:49 60.23779 25.27866 1466 ft 114 kts 335°
2026-04-25 10:49 60.24514 25.27268 1467 ft 114 kts 335°
2026-04-25 10:49 60.25249 25.26670 1467 ft 114 kts 335°
2026-04-25 10:50 60.25982 25.26072 1469 ft 113 kts 335°
2026-04-25 10:50 60.26715 25.25475 1468 ft 114 kts 335°
2026-04-25 10:50 60.27449 25.24877 1461 ft 114 kts 336°
2026-04-25 10:50 60.28186 25.24276 1465 ft 114 kts 335°
2026-04-25 10:51 60.28907 25.23686 1464 ft 113 kts 335°
2026-04-25 10:51 60.29607 25.22999 1260 ft 109 kts 320°
2026-04-25 10:51 60.29973 25.21666 990 ft 116 kts 287°
2026-04-25 10:51 60.30075 25.20024 986 ft 121 kts 279°
2026-04-25 10:52 60.30155 25.18351 991 ft 121 kts 281°
2026-04-25 10:52 60.30255 25.16671 1024 ft 120 kts 280°
2026-04-25 10:52 60.30360 25.15019 1017 ft 117 kts 281°
2026-04-25 10:52 60.30473 25.13391 1017 ft 118 kts 282°
2026-04-25 10:53 60.30594 25.11744 1020 ft 119 kts 282°
2026-04-25 10:53 60.30707 25.10113 952 ft 116 kts 281°
2026-04-25 10:53 60.30809 25.08565 930 ft 105 kts 306°
2026-04-25 10:53 60.30843 25.07141 1134 ft 88 kts 287°
2026-04-25 10:54 60.30988 25.06007 1339 ft 86 kts 291°
2026-04-25 10:54 60.31043 25.05121 980 ft 117 kts 280°
2026-04-25 10:54 60.31066 25.02869 832 ft 115 kts 273°
2026-04-25 10:54 60.31000 25.01219 740 ft 120 kts 268°
2026-04-25 10:55 60.30981 24.99540 537 ft 116 kts 275°
2026-04-25 10:55 60.31179 24.98875 244 ft 33 kts 34°
2026-04-25 10:55 60.31279 24.98976 158 ft 0 kts 11°